CSC8638 ZUXC-ZPLJ

Flight info

Callsign CSC8638
Flight time 0h 49m
Altitude 25600
Route MUBOP W162 CEH W535 LJA
Aircraft A321/M-SDE2E3FGILRWXY/LB1D1

Departure

Time 2026-04-19 09:08
Airport Xichang Qingshan Airport (ZUXC)

Arrival

Time 2026-04-19 09:57
Airport Lijiang Sanyi International Airport (ZPLJ)
Time Latitude Longitude Altitude Speed Heading
2026-04-19 08:51 27.97991 102.18660 5285 ft 0 kts 89°
2026-04-19 08:58 27.97991 102.18659 5286 ft 1 kts 89°
2026-04-19 08:58 27.97991 102.18643 5285 ft 2 kts 89°
2026-04-19 08:58 27.97993 102.18626 5285 ft 2 kts 115°
2026-04-19 08:59 27.98001 102.18611 5283 ft 2 kts 135°
2026-04-19 08:59 27.98014 102.18601 5282 ft 2 kts 158°
2026-04-19 08:59 27.98026 102.18598 5281 ft 0 kts 176°
2026-04-19 08:59 27.98033 102.18598 5280 ft 1 kts 179°
2026-04-19 09:01 27.98031 102.18598 5285 ft 1 kts 179°
2026-04-19 09:01 27.98020 102.18598 5285 ft 2 kts 179°
2026-04-19 09:02 27.98006 102.18598 5285 ft 3 kts 179°
2026-04-19 09:02 27.97983 102.18599 5284 ft 4 kts 178°
2026-04-19 09:02 27.97953 102.18600 5284 ft 4 kts 178°
2026-04-19 09:02 27.97924 102.18600 5284 ft 4 kts 178°
2026-04-19 09:03 27.97899 102.18601 5285 ft 3 kts 178°
2026-04-19 09:03 27.97864 102.18602 5285 ft 9 kts 178°
2026-04-19 09:03 27.97781 102.18606 5285 ft 13 kts 177°
2026-04-19 09:03 27.97697 102.18610 5286 ft 11 kts 177°
2026-04-19 09:04 27.97620 102.18614 5286 ft 11 kts 177°
2026-04-19 09:04 27.97545 102.18617 5287 ft 11 kts 178°
2026-04-19 09:04 27.97471 102.18620 5287 ft 11 kts 178°
2026-04-19 09:04 27.97397 102.18623 5287 ft 11 kts 178°
2026-04-19 09:05 27.97332 102.18625 5287 ft 9 kts 184°
2026-04-19 09:05 27.97297 102.18577 5288 ft 9 kts 264°
2026-04-19 09:05 27.97308 102.18507 5288 ft 10 kts 313°
2026-04-19 09:05 27.97374 102.18488 5287 ft 2 kts 357°
2026-04-19 09:07 27.97384 102.18487 5286 ft 6 kts 357°
2026-04-19 09:07 27.97683 102.18478 5282 ft 80 kts 358°
2026-04-19 09:07 27.98470 102.18447 5279 ft 144 kts 359°
2026-04-19 09:07 27.99635 102.18418 5389 ft 182 kts
2026-04-19 09:08 28.00863 102.18388 6009 ft 180 kts 360°
2026-04-19 09:08 28.02135 102.18347 6315 ft 186 kts 359°
2026-04-19 09:08 28.03456 102.18296 6509 ft 195 kts 359°
2026-04-19 09:08 28.04848 102.18245 6710 ft 205 kts 359°
2026-04-19 09:09 28.06321 102.18191 6895 ft 218 kts 359°
2026-04-19 09:09 28.07882 102.18137 7073 ft 234 kts 359°
2026-04-19 09:09 28.09550 102.18079 7336 ft 247 kts 359°
2026-04-19 09:09 28.11317 102.18019 7612 ft 262 kts 359°
2026-04-19 09:10 28.13179 102.17955 8035 ft 270 kts 359°
2026-04-19 09:10 28.15055 102.17890 8596 ft 272 kts 359°
2026-04-19 09:10 28.16946 102.17823 9169 ft 274 kts 359°
2026-04-19 09:10 28.18859 102.17758 9747 ft 277 kts 359°
2026-04-19 09:11 28.20782 102.17691 10321 ft 280 kts 359°
2026-04-19 09:11 28.22727 102.17627 10930 ft 281 kts 359°
2026-04-19 09:11 28.24682 102.17560 11511 ft 284 kts 358°
2026-04-19 09:11 28.26676 102.17490 12080 ft 287 kts 358°
2026-04-19 09:12 28.28675 102.17421 12594 ft 290 kts 358°
2026-04-19 09:12 28.30693 102.17350 12872 ft 291 kts 358°
2026-04-19 09:12 28.32720 102.17279 12919 ft 292 kts 358°
2026-04-19 09:12 28.34741 102.17342 12908 ft 291 kts 13°
2026-04-19 09:13 28.36598 102.18316 12921 ft 305 kts 41°
2026-04-19 09:13 28.37883 102.20222 13003 ft 311 kts 69°
2026-04-19 09:13 28.38237 102.22633 13530 ft 311 kts 96°
2026-04-19 09:13 28.37602 102.24930 14119 ft 309 kts 123°
2026-04-19 09:14 28.36113 102.26641 14625 ft 309 kts 150°
2026-04-19 09:14 28.34084 102.27384 15105 ft 311 kts 177°
2026-04-19 09:14 28.31950 102.27061 15596 ft 313 kts 194°
2026-04-19 09:14 28.29830 102.26445 16053 ft 318 kts 194°
2026-04-19 09:15 28.27675 102.25826 16550 ft 322 kts 194°
2026-04-19 09:15 28.25488 102.25209 17066 ft 324 kts 194°
2026-04-19 09:15 28.21091 102.23992 18022 ft 328 kts 194°
2026-04-19 09:16 28.18867 102.23384 18496 ft 331 kts 194°
2026-04-19 09:16 28.16626 102.22771 18940 ft 334 kts 195°
2026-04-19 09:16 28.14360 102.22151 19382 ft 338 kts 195°
2026-04-19 09:16 28.12066 102.21525 19832 ft 341 kts 195°
2026-04-19 09:17 28.09738 102.20891 20297 ft 344 kts 195°
2026-04-19 09:17 28.07406 102.20254 20758 ft 347 kts 195°
2026-04-19 09:17 28.05051 102.19611 21225 ft 350 kts 195°
2026-04-19 09:17 28.02673 102.18972 21686 ft 353 kts 194°
2026-04-19 09:18 28.00254 102.18460 22153 ft 357 kts 191°
2026-04-19 09:18 27.97775 102.18139 22618 ft 361 kts 187°
2026-04-19 09:18 27.95258 102.17949 23073 ft 364 kts 186°
2026-04-19 09:18 27.92700 102.17777 23522 ft 368 kts 186°
2026-04-19 09:19 27.90161 102.17608 23968 ft 371 kts 186°
2026-04-19 09:19 27.87553 102.17432 24408 ft 374 kts 186°
2026-04-19 09:19 27.84946 102.17255 24851 ft 377 kts 186°
2026-04-19 09:19 27.82328 102.17075 25272 ft 380 kts 186°
2026-04-19 09:20 27.79680 102.16892 25638 ft 384 kts 186°
2026-04-19 09:20 27.77016 102.16692 25719 ft 384 kts 189°
2026-04-19 09:20 27.74461 102.15922 25709 ft 375 kts 208°
2026-04-19 09:20 27.72344 102.14284 25720 ft 368 kts 227°
2026-04-19 09:21 27.70662 102.12135 25732 ft 367 kts 233°
2026-04-19 09:21 27.69041 102.09914 25734 ft 367 kts 234°
2026-04-19 09:21 27.67426 102.07689 25737 ft 367 kts 233°
2026-04-19 09:21 27.65806 102.05474 25738 ft 367 kts 233°
2026-04-19 09:22 27.64177 102.03256 25737 ft 367 kts 233°
2026-04-19 09:22 27.62535 102.01028 25736 ft 367 kts 234°
2026-04-19 09:22 27.60904 101.98816 25737 ft 367 kts 233°
2026-04-19 09:22 27.59272 101.96612 25744 ft 367 kts 233°
2026-04-19 09:23 27.57634 101.94403 25757 ft 367 kts 233°
2026-04-19 09:23 27.56007 101.92208 25771 ft 367 kts 233°
2026-04-19 09:23 27.54377 101.90008 25787 ft 367 kts 233°
2026-04-19 09:23 27.52743 101.87807 25801 ft 366 kts 233°
2026-04-19 09:24 27.51101 101.85595 25818 ft 366 kts 233°
2026-04-19 09:24 27.49470 101.83402 25828 ft 366 kts 233°
2026-04-19 09:24 27.47837 101.81209 25840 ft 366 kts 234°
2026-04-19 09:24 27.46208 101.79019 25851 ft 366 kts 234°
2026-04-19 09:25 27.44579 101.76830 25855 ft 366 kts 233°
2026-04-19 09:25 27.42952 101.74643 25864 ft 366 kts 234°
2026-04-19 09:25 27.41318 101.72451 25868 ft 366 kts 234°
2026-04-19 09:25 27.39669 101.70239 25872 ft 370 kts 234°
2026-04-19 09:26 27.37985 101.67977 25873 ft 385 kts 234°
2026-04-19 09:26 27.36236 101.65626 25874 ft 399 kts 233°
2026-04-19 09:26 27.34438 101.63217 25875 ft 406 kts 233°
2026-04-19 09:26 27.32619 101.60785 25883 ft 407 kts 233°
2026-04-19 09:27 27.30801 101.58361 25898 ft 407 kts 233°
2026-04-19 09:27 27.28985 101.55933 25909 ft 407 kts 234°
2026-04-19 09:27 27.27152 101.53485 25921 ft 406 kts 234°
2026-04-19 09:27 27.25339 101.51062 25937 ft 406 kts 234°
2026-04-19 09:28 27.23520 101.48635 25953 ft 407 kts 234°
2026-04-19 09:28 27.21700 101.46207 25950 ft 407 kts 234°
2026-04-19 09:28 27.19894 101.43779 25944 ft 407 kts 234°
2026-04-19 09:28 27.18090 101.41334 25939 ft 407 kts 234°
2026-04-19 09:29 27.16290 101.38897 25936 ft 407 kts 234°
2026-04-19 09:29 27.14472 101.36434 25932 ft 408 kts 234°
2026-04-19 09:29 27.12668 101.33991 25924 ft 407 kts 234°
2026-04-19 09:29 27.10869 101.31548 25920 ft 407 kts 234°
2026-04-19 09:30 27.09067 101.29102 25912 ft 407 kts 234°
2026-04-19 09:30 27.07268 101.26663 25900 ft 407 kts 234°
2026-04-19 09:30 27.05465 101.24225 25894 ft 407 kts 234°
2026-04-19 09:30 27.03663 101.21790 25903 ft 407 kts 234°
2026-04-19 09:31 27.01846 101.19339 25913 ft 407 kts 234°
2026-04-19 09:31 27.00036 101.16902 25918 ft 407 kts 234°
2026-04-19 09:31 26.98227 101.14465 25921 ft 407 kts 234°
2026-04-19 09:31 26.96416 101.12028 25933 ft 407 kts 234°
2026-04-19 09:32 26.94612 101.09601 25947 ft 407 kts 234°
2026-04-19 09:32 26.92802 101.07171 25954 ft 408 kts 234°
2026-04-19 09:32 26.90990 101.04738 25965 ft 409 kts 234°
2026-04-19 09:32 26.89157 101.02282 25965 ft 409 kts 233°
2026-04-19 09:33 26.87330 100.99852 25966 ft 408 kts 233°
2026-04-19 09:33 26.85515 100.97436 25971 ft 409 kts 234°
2026-04-19 09:33 26.83681 100.94987 25973 ft 408 kts 234°
2026-04-19 09:33 26.82110 100.92409 25938 ft 399 kts 249°
2026-04-19 09:34 26.81472 100.89450 25812 ft 393 kts 268°
2026-04-19 09:34 26.81705 100.86450 25149 ft 389 kts 285°
2026-04-19 09:34 26.82564 100.83592 24496 ft 387 kts 291°
2026-04-19 09:34 26.83489 100.80787 23837 ft 386 kts 291°
2026-04-19 09:35 26.84399 100.77985 23169 ft 385 kts 290°
2026-04-19 09:35 26.85290 100.75184 22506 ft 384 kts 290°
2026-04-19 09:35 26.86165 100.72390 21875 ft 383 kts 290°
2026-04-19 09:35 26.87033 100.69602 21250 ft 382 kts 290°
2026-04-19 09:36 26.87895 100.66815 20633 ft 381 kts 290°
2026-04-19 09:36 26.88759 100.64011 20016 ft 380 kts 289°
2026-04-19 09:36 26.89613 100.61233 19410 ft 379 kts 289°
2026-04-19 09:36 26.90466 100.58459 18808 ft 379 kts 289°
2026-04-19 09:37 26.91309 100.55686 18208 ft 378 kts 289°
2026-04-19 09:37 26.92114 100.52905 17616 ft 378 kts 288°
2026-04-19 09:37 26.92906 100.50118 17021 ft 378 kts 288°
2026-04-19 09:37 26.93694 100.47343 16576 ft 372 kts 288°
2026-04-19 09:38 26.94471 100.44615 16370 ft 360 kts 288°
2026-04-19 09:38 26.95216 100.42004 16364 ft 350 kts 288°
2026-04-19 09:38 26.95955 100.39416 16216 ft 351 kts 288°
2026-04-19 09:38 26.96683 100.36817 15652 ft 352 kts 285°
2026-04-19 09:39 26.96861 100.34128 15050 ft 348 kts 260°
2026-04-19 09:39 26.95946 100.31711 14485 ft 338 kts 233°
2026-04-19 09:39 26.94171 100.30097 13923 ft 330 kts 205°
2026-04-19 09:39 26.91955 100.29628 13365 ft 323 kts 176°
2026-04-19 09:40 26.89814 100.30216 12832 ft 315 kts 163°
2026-04-19 09:40 26.87697 100.30664 12278 ft 311 kts 180°
2026-04-19 09:40 26.85546 100.30467 11732 ft 313 kts 187°
2026-04-19 09:40 26.83394 100.30612 11346 ft 311 kts 165°
2026-04-19 09:41 26.81529 100.31707 11247 ft 299 kts 139°
2026-04-19 09:41 26.80321 100.33499 11298 ft 283 kts 112°
2026-04-19 09:41 26.79810 100.35552 11584 ft 267 kts 101°
2026-04-19 09:41 26.79494 100.37592 11876 ft 266 kts 99°
2026-04-19 09:42 26.79434 100.39639 12148 ft 265 kts 77°
2026-04-19 09:42 26.80185 100.41485 12436 ft 263 kts 48°
2026-04-19 09:42 26.81614 100.42697 12719 ft 259 kts 20°
2026-04-19 09:42 26.83336 100.43274 13009 ft 260 kts 10°
2026-04-19 09:43 26.85113 100.43690 13287 ft 262 kts
2026-04-19 09:43 26.86915 100.44075 13563 ft 263 kts
2026-04-19 09:43 26.88712 100.44455 13829 ft 264 kts
2026-04-19 09:43 26.90517 100.44834 14099 ft 264 kts
2026-04-19 09:44 26.92322 100.45216 14370 ft 264 kts
2026-04-19 09:44 26.94130 100.45595 14642 ft 265 kts
2026-04-19 09:44 26.95944 100.45983 14912 ft 266 kts
2026-04-19 09:44 26.97762 100.46371 15171 ft 267 kts
2026-04-19 09:45 26.98482 100.46524 15227 ft 267 kts
2026-04-19 09:45 27.00309 100.46910 15256 ft 267 kts
2026-04-19 09:45 27.02136 100.47296 15267 ft 268 kts
2026-04-19 09:45 27.03078 100.47497 15804 ft 269 kts
2026-04-19 09:46 27.04536 100.47778 15506 ft 273 kts
2026-04-19 09:46 27.05378 100.47925 15293 ft 274 kts
2026-04-19 09:46 27.06364 100.48092 15148 ft 272 kts
2026-04-19 09:46 27.07778 100.48328 15019 ft 265 kts
2026-04-19 09:47 27.08486 100.48445 14983 ft 263 kts
2026-04-19 09:47 27.10302 100.48682 14929 ft 263 kts 358°
2026-04-19 09:47 27.12050 100.48174 14870 ft 262 kts 329°
2026-04-19 09:47 27.13396 100.46816 14432 ft 265 kts 302°
2026-04-19 09:48 27.14012 100.44887 13939 ft 268 kts 274°
2026-04-19 09:48 27.13739 100.42847 13440 ft 270 kts 244°
2026-04-19 09:48 27.12593 100.41186 12959 ft 272 kts 218°
2026-04-19 09:48 27.10926 100.40219 12496 ft 273 kts 200°
2026-04-19 09:49 27.09143 100.39519 11984 ft 271 kts 198°
2026-04-19 09:49 27.07389 100.38857 11576 ft 262 kts 198°
2026-04-19 09:49 27.05703 100.38222 11192 ft 250 kts 198°
2026-04-19 09:49 27.04122 100.37625 10826 ft 230 kts 198°
2026-04-19 09:50 27.02675 100.37076 10784 ft 216 kts 198°
2026-04-19 09:50 27.01254 100.36536 10691 ft 212 kts 198°
2026-04-19 09:50 26.99850 100.36002 10831 ft 216 kts 198°
2026-04-19 09:50 26.98428 100.35461 11067 ft 215 kts 199°
2026-04-19 09:51 26.97026 100.34887 11093 ft 214 kts 205°
2026-04-19 09:51 26.95732 100.34094 11106 ft 207 kts 209°
2026-04-19 09:51 26.94529 100.33345 11107 ft 193 kts 209°
2026-04-19 09:51 26.93912 100.32962 11103 ft 191 kts 209°
2026-04-19 09:52 26.92746 100.32238 11104 ft 190 kts 208°
2026-04-19 09:52 26.91528 100.31669 11106 ft 190 kts 196°
2026-04-19 09:52 26.90234 100.31361 11111 ft 190 kts 189°
2026-04-19 09:52 26.88928 100.31122 11108 ft 190 kts 189°
2026-04-19 09:53 26.87621 100.30891 11107 ft 190 kts 189°
2026-04-19 09:53 26.86317 100.30625 11108 ft 190 kts 190°
2026-04-19 09:53 26.85022 100.30312 11076 ft 191 kts 193°
2026-04-19 09:53 26.83735 100.29929 10866 ft 190 kts 195°
2026-04-19 09:54 26.82485 100.29519 10559 ft 182 kts 197°
2026-04-19 09:54 26.81300 100.29115 10271 ft 177 kts 197°
2026-04-19 09:54 26.80129 100.28713 10002 ft 176 kts 197°
2026-04-19 09:54 26.78967 100.28316 9734 ft 175 kts 197°
2026-04-19 09:55 26.77809 100.27920 9467 ft 174 kts 197°
2026-04-19 09:55 26.76660 100.27528 9194 ft 169 kts 197°
2026-04-19 09:55 26.75559 100.27153 8919 ft 162 kts 197°
2026-04-19 09:55 26.74488 100.26787 8677 ft 161 kts 197°
2026-04-19 09:56 26.73422 100.26424 8433 ft 160 kts 197°
2026-04-19 09:56 26.72361 100.26062 8189 ft 160 kts 197°
2026-04-19 09:56 26.71303 100.25701 7943 ft 159 kts 197°
2026-04-19 09:56 26.70248 100.25341 7698 ft 158 kts 197°
2026-04-19 09:57 26.69197 100.24983 7453 ft 158 kts 197°
2026-04-19 09:57 26.68230 100.24652 7368 ft 111 kts 197°
2026-04-19 09:57 26.67737 100.24484 7367 ft 57 kts 197°
2026-04-19 09:57 26.67379 100.24362 7367 ft 40 kts 197°
2026-04-19 09:58 26.67224 100.24309 7367 ft 18 kts 197°
2026-04-19 09:58 26.67180 100.24294 7367 ft 6 kts 197°
2026-04-19 09:58 26.67138 100.24280 7367 ft 7 kts 197°
2026-04-19 09:58 26.67082 100.24265 7367 ft 9 kts 187°
2026-04-19 09:59 26.67018 100.24261 7367 ft 10 kts 180°
2026-04-19 09:59 26.66950 100.24263 7367 ft 10 kts 175°
2026-04-19 09:59 26.66877 100.24276 7367 ft 11 kts 170°
2026-04-19 09:59 26.66830 100.24328 7367 ft 11 kts 82°
2026-04-19 10:00 26.66887 100.24379 7367 ft 11 kts 19°
2026-04-19 10:00 26.66965 100.24407 7367 ft 12 kts 17°
2026-04-19 10:00 26.67041 100.24433 7367 ft 10 kts 17°
2026-04-19 10:00 26.67085 100.24479 7367 ft 8 kts 83°
2026-04-19 10:01 26.67074 100.24543 7367 ft 9 kts 106°
2026-04-19 10:01 26.67064 100.24593 7367 ft 5 kts 86°
2026-04-19 10:01 26.67071 100.24615 7367 ft 0 kts 63°